Location: Pasarilla del Rebollar
(40.6790°N, 5.0062°W)
Time: 11:20:24
(UTC+00:00)

Resurs 1-4 Rocket - Pass Details

Date: 22 April 2026
Orbit: 798 x 812 km, 98.8° (Epoch: 20 May)

Event Time Altitude Azimuth Distance (km) Brightness Sun altitude
Rises 02:44:39 0° 17° (NNE) 3,338 6.3 -27.3°
Reaches altitude 10° 02:47:03 10° 22° (NNE) 2,400 5.4 -27.0°
Maximum altitude 02:52:17 58° 101° (ESE) 933 2.5 -26.3°
Enters shadow 02:53:19 49° 145° (SE) 1,032 2.5 -26.2°
